Regional Weather Roundup
Issued by NWS

Home | Current Version | Previous Version | Graphics & Text | Print | Product List | Glossary Off
Versions: 1 2 3 4 5 6 7 8 9 10 11 12 13 14 15 16 17 18 19 20 21 22 23 24 25 26 27 28 29 30 31 32 33 34 35 36 37 38 39 40 41 42 43 44 45 46 47 48 49 50

000
ASUS43 KLSX 262259
RWRMO

WEATHER SUMMARY FOR MISSOURI
NATIONAL WEATHER SERVICE SPRINGFIELD MO
600 PM CDT THU MAR 26 2015

NOTE: "FAIR" INDICATES FEW OR NO CLOUDS BELOW 12,000 FEET WITH NO
       SIGNIFICANT WEATHER AND/OR OBSTRUCTIONS TO VISIBILITY.
       CURRENT SKY AND/OR WEATHER CONDITIONS ARE NOT AVAILABLE FOR
       CHILLICOTHE AND FARMINGTON.

MOZ001>031-035>038-043-044-053-054-270000-
...NORTHERN AND WESTERN MISSOURI...

CITY           SKY/WX    TMP DP  RH WIND       PRES   REMARKS
KANSAS CTY INT PTSUNNY   48  28  46 W7        30.07F
KANSAS C DTWN  MOSUNNY   51  25  36 N5        30.08F
LEE`S SUMMIT   SUNNY     50  26  39 NW10      30.08F
ST JOSEPH      MOSUNNY   49  26  41 NW7       30.08F
CHILLICOTHE      N/A     51  26  37 NW8       30.08F
KIRKSVILLE     MOSUNNY   49  24  37 NW9       30.06R

$$
MOZ066>068-077>081-088>096-101>105-270000-
...SOUTHWEST MISSOURI...

CITY           SKY/WX    TMP DP  RH WIND       PRES   REMARKS
SPRINGFIELD    SUNNY     51  27  39 NW13      30.06S
JOPLIN         SUNNY     52  28  39 NW12      30.09F

$$
MOZ032>034-039>042-045>050-055>058-069>072-270000-
...CENTRAL MISSOURI...

CITY           SKY/WX    TMP DP  RH WIND       PRES   REMARKS
COLUMBIA       SUNNY     49  30  48 NW14      30.05F
JEFFERSON CITY SUNNY     50  28  42 NW13      30.06S
ROLLA          SUNNY     48  29  47 MISG      30.03S
SEDALIA        SUNNY     50  29  44 NW9       30.09F
OSAGE BEACH    SUNNY     52  27  37 NW6       30.06S

$$
MOZ051-052-059>065-270000-
...EAST CENTRAL MISSOURI...

CITY           SKY/WX    TMP DP  RH WIND       PRES   REMARKS
ST LOUIS INTL  MOSUNNY   50  27  40 NW14G20   30.04S
SPIRIT OF STL  MOSUNNY   50  29  44 NW9       30.04S
ST CHARLES     LGT RAIN  49  26  41 NW15      30.04S

$$
MOZ072>076-082>087-097>100-106>115-270000-
...SOUTH CENTRAL AND SOUTHEAST MISSOURI...

CITY           SKY/WX    TMP DP  RH WIND       PRES   REMARKS
CAPE GIRARDEAU SUNNY     48  34  58 N13       30.03R
FARMINGTON     SUNNY     48  27  43 N10G17    30.05S
POPLAR BLUFF   SUNNY     51  33  50 NE8       30.01S
WEST PLAINS    SUNNY     52  27  38 MISG      30.03R

$$



USA.gov is the U.S. government's official web portal to all federal, state and local government web resources and services.